SCP
0 0 0 0 0 0 0 0 0 0 0 0 0 0 0 0 0 0 0 0 0 0 0 0 0 0 0 0 0 0 0 0 0 0 0 0 0 0
0 0 0 0 0 0 0 0 0 0 0 0 0 0 0 0 0 0 0 0 0 0 0 0 0 0 0 0 0 0 0 0 0 0 0 0 0 0
0 0 0 0 0 0 0 0 0 0 0 0 0 0 0 0 0 0 0 0 0 0 0 0 0 0 0 0 0 0 0 0 0 0 0 0 0 0
0 0 0 0 0 0 0 0 0 0 0 0 0 0 0 0 0 0 0 0 0 0 0 0 0 0 0 0 0 0 0 0 0 0 0 0 0 0
0 0 0 0 0 0 0 0 0 0 0 0 0 0 0 0 0 0 0 0 0 0 0 0 0 0 0 0 0 0 0 0 0 0 0 0 0 0
0 0 0 0 0 0 0 0 0 0 0 0 0 0 0 0 0 0 0 0 0 0 0 0 0 0 0 0 0 0 0 0 0 0 0 0 0 0
0 0 0 0 0 0 0 0 0 0 0 0 0 0 0 0 0 0 0 0 0 0 0 0 0 0 0 0 0 0 0 0 0 0 0 0 0 0
0 0 0 0 0 0 0 0 0 0 0 0 0 0 0 0 0 0 0 0 0 0 0 0 0 0 0 0 0 0 0 0 0 0 0 0 0 0
0 0 0 0 0 0 0 0 0 0 0 0 0 0 0 0 0 0 0 0 0 0 0 0 0 0 0 0 0 0 0 0 0 0 0 0 0 0
0 0 0 0 0 0 0 0 0 0 0 0 0 0 0 0 0 0 0 0 0 0 0 0 0 0 0 0 0 0 0 0 0 0 0 0 0 0
0 0 0 0 0 0 0 0 0 0 0 0 0 0 0 0 0 0 0 0 0 0 0 0 0 0 0 0 0 0 0 0 0 0 0 0 0 0
0 0 0 0 0 0 0 0 0 0 0 0 0 0 0 0 0 0 0 0 0 0 0 0 0 0 0 0 0 0 0 0 0 0 0 0 0 0
0 0 0 0 0 0 0 0 0 0 0 0 0 0 0 0 0 0 0 0 0 0 0 0 0 0 0 0 0 0 0 0 0 0 0 0 0 0
0 0 0 0 0 -0 0 0 0 0 0 0 0 0 0 0 0 0 0 0 0 0 0 0 0 0 0 0 0 0 0 0 0 0 0 0 0 0
0 0 0 0 0 0 0 0 0 0 0 0 0 0 0 0 0 0 0 0 0 0 0 0 0 0 0 0 0 0 0 0 0 0 0 0 0 0
0 0 0 0 0 0 0 0 0 0 0 0 0 0 0 0 0 0 0 0 0 0 0 0 0 0 0 0 0 0 0 0 0 0 0 0 0 0
0 0 0 0 0 0 0 0 0 0 0 0 0 0 0 0 0 0 0 0 0 0 0 0 0 0 0 0 0 0 0 0 0 0 0 0 0 0
0 0 0 0 0 0 0 0 0 0 0 0 0 0 0 0 0 0 0 0 0 0 0 0 0 0 0 0 0 0 0 0 0 0 0 0 0 0
0 0 0 0 0 0 0 0 0 0 0 0 0 0 0 0 0 0 0 0 0 0 0 0 0 0 0 0 0 0 0 0 0 0 0 0 0 0
0 0 0 0 0 0 0 0 0 0 0 0 0 0 0 0 0 0 0 0 0 0 0 0 0 0 0 0 0 0 0 0 0 0 0 0 0 0
0 0 0 0 0 0 0 0 0 0 0 0 0 0 0 0 0 0 0 0 0 0 0 0 0 0 0 0 0 0 0 0 0 0 0 0 0 0
0 0 0 0 0 0 0 0 0 0 0 0 0 0 0 0 0 0 0 0 0 0 0 0 0 0 0 0 0 0 0 0 0 0 0 0 0 0
0 0 0 0 0 0 0 0 0 0 0 0 0 0 0 0 0 0 0 0 0 0 0 0 0 0 0 0 0 0 0 0 0 0 0 0 0 0
Wind_Speed
5 5 4 3 2 2 1 1 1 1 2 3 2 3 4 5 8 7 7 12 15 16 15 16 16 17 18 19 20 21 21 22 23 23 24 23 23 23
3 4 3 2 2 1 1 0 1 2 3 2 3 5 6 7 10 8 9 15 15 16 16 16 17 18 19 20 20 21 22 22 22 23 23 23 23 23
5 4 3 2 1 1 0 0 1 2 3 4 3 4 6 8 9 8 8 8 8 15 17 17 18 18 19 19 20 20 21 21 21 22 22 23 23 23
5 4 4 2 2 1 1 2 2 3 4 5 5 5 7 8 9 10 9 8 8 13 17 18 18 18 17 17 18 18 17 18 19 21 21 22 23 23
4 4 4 3 3 2 2 2 2 3 3 4 6 5 5 6 8 8 9 8 9 10 14 15 16 17 17 17 17 16 15 15 17 18 19 20 21 21
4 4 4 4 4 4 3 3 3 3 4 5 6 6 6 7 6 7 8 8 8 9 11 11 13 16 17 17 17 17 15 14 14 15 16 17 18 19
6 6 6 6 6 4 3 3 3 4 5 6 7 7 7 7 7 5 8 9 10 7 7 8 9 9 10 12 14 15 15 14 14 14 14 14 15 15
6 7 7 6 8 9 9 9 8 7 8 7 7 8 10 9 8 7 8 8 6 4 5 9 8 9 8 8 11 15 15 15 14 14 13 13 13 13
6 6 6 6 7 6 9 12 12 13 12 8 9 10 10 9 8 9 8 8 9 8 6 8 8 9 8 8 13 15 14 14 13 13 12 12 12 12
6 6 6 7 7 8 9 10 10 10 10 7 8 10 10 10 8 8 8 8 8 7 5 6 7 8 9 8 10 13 13 13 12 12 11 11 11 11
7 7 7 8 10 11 9 9 10 9 8 9 10 11 12 12 9 5 5 6 7 7 4 4 5 7 8 7 7 10 12 12 12 12 11 11 10 10
7 7 9 9 11 12 8 7 9 9 9 9 8 8 7 7 6 4 4 5 6 5 3 3 4 5 5 4 6 7 7 9 11 11 11 10 9 6
7 7 7 12 14 14 10 6 8 9 8 7 6 6 5 5 5 4 3 4 5 5 4 4 4 4 4 5 6 6 6 6 6 6 7 8 7 5
6 7 8 14 15 14 9 8 10 7 4 4 4 4 5 5 5 6 6 5 5 7 7 5 3 4 4 4 5 6 6 5 5 5 5 6 5 3
6 11 13 14 12 8 8 10 7 4 3 4 4 4 4 5 5 5 6 6 6 5 4 4 4 4 4 4 5 5 5 4 5 5 4 4 3 3
7 9 11 10 7 7 7 6 4 3 3 4 4 4 5 5 4 4 4 5 5 5 6 6 5 4 3 5 5 5 5 5 5 5 4 3 4 4
8 5 5 6 7 7 7 6 5 5 4 4 4 4 5 4 4 4 3 4 4 5 6 6 6 4 2 3 4 6 6 5 5 5 4 3 4 5
5 4 5 6 6 7 7 7 6 6 6 5 5 4 4 5 5 4 3 4 5 5 6 6 7 6 3 1 2 6 5 5 5 6 4 3 4 5
4 5 5 6 6 7 6 6 6 6 6 5 5 5 5 4 4 4 4 4 4 5 5 5 5 5 5 6 5 5 6 5 6 5 4 3 3 5
4 5 6 6 6 6 7 6 7 7 6 6 5 5 5 4 4 4 4 4 4 5 5 5 5 5 4 4 4 4 7 6 5 5 5 3 3 4
6 6 6 6 6 6 6 6 6 6 7 6 6 6 5 4 4 4 4 5 4 4 5 6 5 6 4 3 3 4 5 5 5 5 6 4 4 5
6 6 6 6 6 6 7 6 6 6 7 6 6 6 5 4 4 4 4 4 4 4 5 5 5 5 5 6 6 6 6 6 5 7 9 8 4 5
6 6 6 6 6 6 6 7 8 7 6 6 6 6 6 5 4 4 3 3 3 5 5 5 5 5 5 5 6 6 8 8 6 7 7 10 9 8
Wind_Direction
72 72 71 55 49 48 77 143 175 259 284 296 297 302 317 312 308 309 306 306 304 301 299 296 291 288 286 284 282 280 279 278 277 276 274 273 273 272
60 64 60 57 53 45 53 119 193 209 254 269 271 288 302 305 305 307 299 300 298 297 294 292 289 288 285 282 281 280 279 278 278 277 275 273 273 273
37 43 38 32 39 21 358 236 217 206 248 275 272 285 291 295 303 301 294 290 286 289 292 291 289 287 285 283 283 282 281 281 280 279 277 276 274 273
23 21 13 4 350 322 280 260 247 229 239 277 289 292 287 294 297 299 299 297 293 291 291 291 290 289 287 286 286 284 281 279 278 277 277 275 274 273
11 3 348 343 329 312 295 280 272 263 241 265 287 287 287 292 299 297 298 294 294 293 293 291 291 293 293 292 289 284 277 272 271 272 273 274 273 272
1 350 336 320 303 303 300 295 288 286 280 280 289 294 292 293 290 299 307 306 302 299 292 292 292 294 293 292 290 287 281 274 269 267 268 269 271 271
355 348 333 329 337 330 321 307 298 294 296 295 295 297 298 301 300 297 301 305 299 290 294 298 297 293 292 290 288 287 285 282 277 273 269 267 265 263
346 339 329 336 341 340 332 322 311 301 296 290 290 290 293 293 293 294 299 302 302 294 294 300 298 294 293 289 284 285 284 283 280 276 273 270 266 261
335 332 328 325 331 322 319 317 309 300 290 279 277 280 285 289 294 297 298 298 294 297 297 295 300 298 300 295 292 290 288 287 285 281 277 272 266 263
326 318 313 312 313 321 317 311 306 301 294 282 266 274 279 286 284 284 290 291 287 285 277 286 299 302 305 303 294 290 291 290 290 287 282 277 271 265
321 317 313 309 309 318 316 308 307 307 305 293 283 283 284 286 286 285 292 300 307 310 300 273 291 304 302 298 299 298 299 299 299 296 292 286 277 267
321 317 315 312 310 314 310 301 303 308 316 320 318 317 311 307 306 282 281 294 303 302 298 291 293 307 301 293 305 311 312 306 303 300 298 294 288 272
318 319 316 316 315 314 309 288 283 294 304 309 314 320 325 325 324 317 287 267 286 289 298 307 293 294 289 300 306 314 318 317 317 312 310 310 300 275
308 309 307 310 313 314 313 307 311 311 307 317 325 327 326 326 323 319 309 291 265 270 286 295 285 300 304 301 304 315 322 328 333 331 331 328 327 312
305 305 310 313 317 319 322 327 332 335 329 325 324 315 308 307 310 315 319 322 317 305 301 299 296 296 298 302 312 315 318 325 339 338 340 346 350 350
325 319 320 320 327 326 329 339 343 331 316 310 309 304 308 319 324 326 322 333 334 331 328 329 324 311 309 316 317 326 329 329 334 337 338 355 11 12
320 323 341 345 351 350 346 342 341 345 343 330 320 319 322 328 328 328 322 330 339 339 341 342 340 329 274 321 333 337 336 336 340 342 342 358 17 15
339 343 342 346 346 344 341 338 337 343 340 330 323 320 323 327 329 333 338 341 343 343 346 346 347 352 351 295 2 344 341 339 339 347 355 353 2 5
3 350 345 343 341 338 336 333 327 328 328 329 328 327 324 327 332 337 342 345 347 346 346 349 354 355 359 359 351 5 351 342 342 348 352 351 348 346
357 348 343 339 337 336 335 334 331 333 338 338 336 333 333 331 336 341 344 344 345 351 357 360 1 356 350 337 328 333 353 354 347 348 345 337 327 317
347 344 341 338 335 334 334 334 333 333 336 336 338 339 338 338 341 345 347 348 355 0 3 0 348 341 337 342 356 360 356 3 14 6 350 346 350 1
344 342 339 339 337 336 336 337 338 340 342 342 338 338 339 342 346 350 354 358 4 7 5 1 1 11 21 24 22 14 11 10 18 32 36 31 12 4
345 340 339 341 342 340 339 340 340 338 340 338 335 336 338 343 348 357 3 7 11 18 19 15 16 24 26 23 23 21 20 19 20 29 33 26 35 38